Weather History for Williamsburg, VA

Change the Weather History Date:

Tuesday, October 16, 2012

  Actual Average Record
Temperature  
Mean Temperature 58 °F -  
Max Temperature 69 °F 73 °F 87 °F (2008)
Min Temperature 48 °F 48 °F 33 °F (1987)
Degree Days  
Heating Degree Days 6    
Growing Degree Days 8 (Base 50)    
Moisture  
Dew Point 48 °F    
Average Humidity 74    
Maximum Humidity 100    
Minimum Humidity 40    
Precipitation  
Precipitation 0.01 in - - ()
Sea Level Pressure  
Sea Level Pressure 29.89 in    
Wind  
Wind Speed 6 mph (NNW)    
Max Wind Speed 15 mph    
Max Gust Speed 21 mph    
Visibility 10 miles    
Events      
Averages and records for this station are not official NWS values.
T = Trace of Precipitation, MM = Missing Value Source: NWS Daily Summary

Daily Weather History Graph

Daily Weather History Graph

Search for Another Location

Airport:

Trip Planner

Search our weather history database for the weather conditions in past years. The results will help you decide how hot, cold, wet, or windy it might be!

Date:

Astronomy

Oct. 16, 2012 Rise Set
Actual Time 7:16 AM EDT 6:27 PM EDT
Civil Twilight 6:49 AM EDT 6:54 PM EDT
Nautical Twilight 6:19 AM EDT 7:24 PM EDT
Astronomical Twilight 5:49 AM EDT 7:54 PM EDT
Moon 8:33 AM EDT (10/16) 7:13 PM EDT (10/16)
Length of Visible Light 12h 04m
Length of Day
11h 11m
New Moon, 2% of the Moon is Illuminated
Oct 16
New Moon
Oct 21
First Quarter
Oct 29
Full
Nov 6
Last Quarter
Nov 13
New

Hourly Weather History & Observations

Time (EDT) Temp. Dew Point Humidity Pressure Visibility Wind Dir Wind Speed Gust Speed Precip Events Conditions
12:15 AM 57.2 °F 55.4 °F 94% 29.81 in 7.0 mi North 4.6 mph - N/A   Clear
12:35 AM 57.2 °F 55.4 °F 94% 29.82 in 5.0 mi North 5.8 mph - N/A   Clear
12:55 AM 55.4 °F 55.4 °F 100% 29.82 in 10.0 mi North 9.2 mph - N/A   Clear
1:15 AM 55.4 °F 53.6 °F 94% 29.83 in 10.0 mi North 6.9 mph - N/A   Clear
1:35 AM 53.6 °F 51.8 °F 94% 29.82 in 10.0 mi North 8.1 mph - N/A   Scattered Clouds
1:55 AM 53.6 °F 51.8 °F 94% 29.82 in 10.0 mi NNW 6.9 mph - N/A   Clear
2:15 AM 53.6 °F 51.8 °F 94% 29.83 in 10.0 mi North 8.1 mph - N/A   Clear
2:35 AM 53.6 °F 51.8 °F 94% 29.84 in 10.0 mi NNW 5.8 mph - N/A   Clear
2:55 AM 51.8 °F 50.0 °F 94% 29.83 in 10.0 mi NNW 4.6 mph - N/A   Clear
3:15 AM 51.8 °F 50.0 °F 94% 29.84 in 10.0 mi North 4.6 mph - N/A   Clear
3:35 AM 51.8 °F 50.0 °F 94% 29.84 in 10.0 mi NNW 6.9 mph - N/A   Clear
3:55 AM 51.8 °F 48.2 °F 88% 29.84 in 10.0 mi NNW 6.9 mph - N/A   Clear
4:15 AM 51.8 °F 48.2 °F 88% 29.85 in 10.0 mi NNW 9.2 mph - N/A   Clear
4:35 AM 51.8 °F 48.2 °F 88% 29.85 in 10.0 mi NNW 4.6 mph - N/A   Clear
4:55 AM 51.8 °F 48.2 °F 88% 29.87 in 10.0 mi NNW 8.1 mph - N/A   Clear
5:15 AM 51.8 °F 48.2 °F 88% 29.87 in 10.0 mi NNW 5.8 mph - N/A   Clear
5:35 AM 51.8 °F 48.2 °F 88% 29.87 in 10.0 mi NNW 6.9 mph - N/A   Clear
5:55 AM 51.8 °F 46.4 °F 82% 29.88 in 10.0 mi NNW 5.8 mph - N/A   Clear
6:15 AM 51.8 °F 46.4 °F 82% 29.89 in 10.0 mi North 5.8 mph - N/A   Clear
6:35 AM 50.0 °F 46.4 °F 87% 29.89 in 10.0 mi NNW 5.8 mph - N/A   Clear
6:55 AM 48.2 °F 46.4 °F 93% 29.91 in 10.0 mi NNW 4.6 mph - N/A   Clear
7:15 AM 48.2 °F 46.4 °F 93% 29.91 in 10.0 mi NNW 4.6 mph - N/A   Clear
7:35 AM 48.2 °F 46.4 °F 93% 29.92 in 10.0 mi NNW 6.9 mph - N/A   Clear
7:55 AM 50.0 °F 46.4 °F 87% 29.92 in 10.0 mi NNW 8.1 mph - N/A   Clear
8:15 AM 51.8 °F 46.4 °F 82% 29.93 in 10.0 mi NNW 6.9 mph - N/A   Clear
8:35 AM 51.8 °F 46.4 °F 82% 29.93 in 10.0 mi NNW 8.1 mph - N/A   Clear
8:55 AM 53.6 °F 46.4 °F 77% 29.94 in 10.0 mi North 6.9 mph - N/A   Clear
9:15 AM 55.4 °F 46.4 °F 72% 29.94 in 10.0 mi NNW 8.1 mph - N/A   Clear
9:35 AM 55.4 °F 48.2 °F 77% 29.94 in 10.0 mi North 8.1 mph - N/A   Clear
9:55 AM 59.0 °F 46.4 °F 63% 29.94 in 10.0 mi North 6.9 mph - N/A   Clear
10:15 AM 60.8 °F 46.4 °F 59% 29.94 in 10.0 mi North 8.1 mph - N/A   Clear
10:35 AM 62.6 °F 46.4 °F 55% 29.94 in 10.0 mi North 11.5 mph 16.1 mph N/A   Clear
10:55 AM 62.6 °F 46.4 °F 55% 29.94 in 10.0 mi North 8.1 mph - 0.01 in   Clear
11:15 AM 64.4 °F 46.4 °F 52% 29.93 in 10.0 mi North 5.8 mph 17.3 mph N/A   Clear
11:35 AM 64.4 °F 46.4 °F 52% 29.93 in 10.0 mi NNW 11.5 mph 17.3 mph N/A   Clear
11:55 AM 66.2 °F 46.4 °F 49% 29.93 in 10.0 mi NW 15.0 mph 20.7 mph N/A   Clear
12:15 PM 66.2 °F 44.6 °F 46% 29.93 in 10.0 mi North 8.1 mph - N/A   Clear
12:35 PM 66.2 °F 46.4 °F 49% 29.92 in 10.0 mi NNW 9.2 mph - N/A   Clear
12:55 PM 68.0 °F 44.6 °F 43% 29.91 in 10.0 mi North 5.8 mph - N/A   Clear
1:15 PM 68.0 °F 44.6 °F 43% 29.90 in 10.0 mi North 5.8 mph - N/A   Clear
1:35 PM 68.0 °F 44.6 °F 43% 29.89 in 10.0 mi North 8.1 mph - N/A   Clear
1:55 PM 69.8 °F 44.6 °F 40% 29.89 in 10.0 mi NNW 10.4 mph - N/A   Clear
2:15 PM 68.0 °F 42.8 °F 40% 29.88 in 10.0 mi WNW 10.4 mph 17.3 mph N/A   Clear
2:35 PM 68.0 °F 44.6 °F 43% 29.88 in 10.0 mi WNW 6.9 mph - N/A   Clear
2:55 PM 69.8 °F 44.6 °F 40% 29.87 in 10.0 mi Calm Calm - N/A   Clear
3:15 PM 69.8 °F 44.6 °F 40% 29.87 in 10.0 mi NW 9.2 mph - N/A   Clear
3:35 PM 69.8 °F 44.6 °F 40% 29.87 in 10.0 mi NNW 5.8 mph - N/A   Clear
4:15 PM 69.8 °F 44.6 °F 40% 29.87 in 10.0 mi NNW 6.9 mph - N/A   Clear
4:35 PM 68.0 °F 44.6 °F 43% 29.87 in 10.0 mi NW 10.4 mph - N/A   Clear
4:55 PM 68.0 °F 46.4 °F 46% 29.87 in 10.0 mi WNW 8.1 mph - N/A   Clear
5:15 PM 68.0 °F 46.4 °F 46% 29.88 in 10.0 mi NW 4.6 mph - N/A   Clear
5:35 PM 66.2 °F 46.4 °F 49% 29.88 in 10.0 mi Calm Calm - N/A   Clear
5:55 PM 64.4 °F 46.4 °F 52% 29.89 in 10.0 mi WNW 3.5 mph - N/A   Clear
6:15 PM 60.8 °F 50.0 °F 68% 29.89 in 10.0 mi Calm Calm - N/A   Clear
6:35 PM 57.2 °F 51.8 °F 82% 29.89 in 10.0 mi Calm Calm - N/A   Clear
6:55 PM 55.4 °F 51.8 °F 88% 29.90 in 10.0 mi Calm Calm - N/A   Clear
7:15 PM 55.4 °F 51.8 °F 88% 29.90 in 10.0 mi Calm Calm - N/A   Clear
7:35 PM 53.6 °F 51.8 °F 94% 29.90 in 10.0 mi Calm Calm - N/A   Clear
7:55 PM 53.6 °F 50.0 °F 88% 29.91 in 10.0 mi Calm Calm - N/A   Clear
8:15 PM 53.6 °F 50.0 °F 88% 29.91 in 10.0 mi Calm Calm - N/A   Clear
8:35 PM 51.8 °F 50.0 °F 94% 29.92 in 10.0 mi Calm Calm - N/A   Clear
8:55 PM 51.8 °F 48.2 °F 88% 29.92 in 10.0 mi Calm Calm - N/A   Clear
9:15 PM 51.8 °F 48.2 °F 88% 29.93 in 10.0 mi Calm Calm - N/A   Clear
9:35 PM 51.8 °F 48.2 °F 88% 29.94 in 10.0 mi Calm Calm - N/A   Clear
9:55 PM 51.8 °F 48.2 °F 88% 29.93 in 10.0 mi Calm Calm - N/A   Clear
10:15 PM 51.8 °F 48.2 °F 88% 29.93 in 10.0 mi Calm Calm - N/A   Clear
10:35 PM 51.8 °F 48.2 °F 88% 29.93 in 7.0 mi Calm Calm - N/A   Clear
10:55 PM 50.0 °F 48.2 °F 94% 29.93 in 10.0 mi Calm Calm - N/A   Clear
11:35 PM 50.0 °F 48.2 °F 94% 29.93 in 7.0 mi Calm Calm - N/A   Clear
11:55 PM 48.2 °F 46.4 °F 93% 29.93 in 7.0 mi Calm Calm - N/A   Clear